EZY92HL EGKK-EGPH

Flight info

Callsign EZY92HL
Flight time 1h 16m
Altitude 28000
Route LAM6M LAM L10 BPK UN601 RIBEL DCT INPIP INPIP1E
Aircraft A20N/M-VGD/A

Departure

Time 2026-04-14 13:43
Airport London Gatwick Airport (EGKK)

Arrival

Time 2026-04-14 14:59
Airport Edinburgh Airport (EGPH)
Time Latitude Longitude Altitude Speed Heading
2026-04-14 13:18 51.15614 -0.16673 205 ft 0 kts 168°
2026-04-14 13:28 51.15625 -0.16676 211 ft 2 kts 169°
2026-04-14 13:28 51.15641 -0.16681 204 ft 2 kts 175°
2026-04-14 13:28 51.15657 -0.16682 204 ft 2 kts 183°
2026-04-14 13:29 51.15674 -0.16680 204 ft 2 kts 197°
2026-04-14 13:29 51.15688 -0.16667 217 ft 2 kts 237°
2026-04-14 13:29 51.15693 -0.16650 214 ft 1 kts 258°
2026-04-14 13:29 51.15693 -0.16649 207 ft 0 kts 257°
2026-04-14 13:33 51.15693 -0.16652 214 ft 2 kts 257°
2026-04-14 13:33 51.15681 -0.16739 206 ft 12 kts 257°
2026-04-14 13:33 51.15658 -0.16897 209 ft 17 kts 256°
2026-04-14 13:33 51.15632 -0.17093 215 ft 20 kts 259°
2026-04-14 13:34 51.15467 -0.17280 204 ft 19 kts 167°
2026-04-14 13:34 51.15334 -0.17234 208 ft 19 kts 167°
2026-04-14 13:34 51.15271 -0.17201 210 ft 9 kts 150°
2026-04-14 13:35 51.15212 -0.17138 212 ft 11 kts 142°
2026-04-14 13:35 51.15199 -0.17021 206 ft 11 kts 79°
2026-04-14 13:35 51.15219 -0.16892 215 ft 13 kts 64°
2026-04-14 13:35 51.15234 -0.16816 211 ft 0 kts 144°
2026-04-14 13:36 51.15232 -0.16814 210 ft 0 kts 147°
2026-04-14 13:38 51.15226 -0.16808 212 ft 4 kts 147°
2026-04-14 13:39 51.15178 -0.16783 214 ft 10 kts 166°
2026-04-14 13:39 51.15122 -0.16788 215 ft 8 kts 236°
2026-04-14 13:39 51.15114 -0.16832 211 ft 0 kts 256°
2026-04-14 13:40 51.15113 -0.16835 210 ft 0 kts 256°
2026-04-14 13:42 51.15104 -0.16893 203 ft 29 kts 256°
2026-04-14 13:42 51.15049 -0.17285 206 ft 79 kts 257°
2026-04-14 13:43 51.14887 -0.18459 206 ft 136 kts 258°
2026-04-14 13:43 51.14658 -0.20148 377 ft 164 kts 255°
2026-04-14 13:43 51.14360 -0.22436 1451 ft 156 kts 251°
2026-04-14 13:43 51.14136 -0.24109 2227 ft 153 kts 253°
2026-04-14 13:44 51.14035 -0.25241 2725 ft 153 kts 255°
2026-04-14 13:44 51.13913 -0.26930 3351 ft 158 kts 262°
2026-04-14 13:44 51.14200 -0.29215 4166 ft 166 kts 290°
2026-04-14 13:44 51.14700 -0.30262 4399 ft 185 kts 312°
2026-04-14 13:45 51.15891 -0.31287 4861 ft 207 kts 342°
2026-04-14 13:45 51.17392 -0.31336 5381 ft 229 kts
2026-04-14 13:45 51.18928 -0.30309 5914 ft 252 kts 36°
2026-04-14 13:45 51.20111 -0.28214 6550 ft 259 kts 64°
2026-04-14 13:46 51.20576 -0.25474 7169 ft 258 kts 89°
2026-04-14 13:46 51.20638 -0.22615 7748 ft 256 kts 94°
2026-04-14 13:46 51.20624 -0.19770 8440 ft 260 kts 92°
2026-04-14 13:46 51.20847 -0.16946 9712 ft 254 kts 79°
2026-04-14 13:47 51.21270 -0.14256 10884 ft 248 kts 73°
2026-04-14 13:47 51.21849 -0.11678 11888 ft 249 kts 76°
2026-04-14 13:47 51.22265 -0.08901 12516 ft 267 kts 81°
2026-04-14 13:47 51.22743 -0.05895 12913 ft 295 kts 66°
2026-04-14 13:48 51.24001 -0.03116 13107 ft 328 kts 41°
2026-04-14 13:48 51.25992 -0.01131 13133 ft 358 kts 19°
2026-04-14 13:48 51.28470 -0.00198 13505 ft 372 kts
2026-04-14 13:48 51.31021 0.00401 14571 ft 369 kts
2026-04-14 13:49 51.33559 0.01137 15516 ft 372 kts
2026-04-14 13:49 51.36086 0.02067 16374 ft 376 kts 11°
2026-04-14 13:49 51.38623 0.03140 17276 ft 378 kts 13°
2026-04-14 13:49 51.41170 0.04288 18134 ft 381 kts 13°
2026-04-14 13:50 51.43724 0.05472 18917 ft 384 kts 13°
2026-04-14 13:50 51.46298 0.06673 19719 ft 385 kts 13°
2026-04-14 13:50 51.48879 0.07875 20465 ft 387 kts 13°
2026-04-14 13:50 51.51475 0.09081 21209 ft 390 kts 12°
2026-04-14 13:51 51.53998 0.10795 21923 ft 400 kts 26°
2026-04-14 13:51 51.56303 0.13359 22591 ft 404 kts 27°
2026-04-14 13:51 51.58837 0.15219 23245 ft 399 kts 14°
2026-04-14 13:51 51.61528 0.16165 23894 ft 394 kts
2026-04-14 13:52 51.64244 0.16107 24486 ft 388 kts 347°
2026-04-14 13:52 51.66807 0.14896 25090 ft 383 kts 332°
2026-04-14 13:52 51.69048 0.12628 25661 ft 380 kts 319°
2026-04-14 13:52 51.71059 0.09843 26226 ft 382 kts 317°
2026-04-14 13:53 51.73071 0.07031 26776 ft 384 kts 318°
2026-04-14 13:53 51.75099 0.04196 27325 ft 386 kts 318°
2026-04-14 13:53 51.77137 0.01350 27845 ft 389 kts 318°
2026-04-14 13:53 51.79188 -0.01513 28068 ft 390 kts 318°
2026-04-14 13:54 51.81248 -0.04390 28204 ft 393 kts 318°
2026-04-14 13:54 51.83315 -0.07279 28776 ft 393 kts 318°
2026-04-14 13:54 51.85360 -0.10142 29302 ft 394 kts 318°
2026-04-14 13:54 51.87435 -0.13051 29761 ft 396 kts 318°
2026-04-14 13:55 51.89527 -0.15987 30062 ft 399 kts 318°
2026-04-14 13:55 51.93716 -0.21876 30100 ft 398 kts 318°
2026-04-14 13:56 51.97896 -0.27768 30099 ft 398 kts 318°
2026-04-14 13:56 52.02057 -0.33648 30095 ft 398 kts 318°
2026-04-14 13:57 52.06249 -0.39589 30076 ft 398 kts 317°
2026-04-14 13:57 52.10703 -0.44894 30076 ft 400 kts 327°
2026-04-14 13:58 52.15472 -0.49480 30074 ft 400 kts 327°
2026-04-14 13:58 52.20275 -0.54154 30074 ft 404 kts 327°
2026-04-14 13:58 52.22725 -0.56542 30069 ft 416 kts 327°
2026-04-14 13:59 52.25234 -0.58988 30068 ft 422 kts 327°
2026-04-14 13:59 52.30271 -0.63904 30066 ft 421 kts 327°
2026-04-14 14:00 52.34645 -0.68184 30068 ft 422 kts 326°
2026-04-14 14:00 52.39673 -0.73114 30068 ft 421 kts 326°
2026-04-14 14:01 52.44702 -0.78053 30066 ft 421 kts 326°
2026-04-14 14:01 52.49729 -0.83003 30067 ft 421 kts 326°
2026-04-14 14:02 52.54747 -0.87958 30067 ft 421 kts 326°
2026-04-14 14:02 52.59725 -0.92888 30067 ft 421 kts 326°
2026-04-14 14:03 52.64772 -0.97901 30023 ft 420 kts 326°
2026-04-14 14:03 52.69777 -1.02888 30050 ft 420 kts 326°
2026-04-14 14:04 52.74744 -1.07850 30050 ft 420 kts 326°
2026-04-14 14:04 52.79738 -1.12853 30048 ft 419 kts 326°
2026-04-14 14:05 52.84705 -1.17842 30048 ft 420 kts 326°
2026-04-14 14:05 52.89711 -1.22885 30061 ft 420 kts 325°
2026-04-14 14:06 52.94438 -1.27659 30046 ft 420 kts 325°
2026-04-14 14:06 52.99410 -1.32693 30050 ft 420 kts 325°
2026-04-14 14:07 53.04424 -1.37781 30045 ft 420 kts 325°
2026-04-14 14:07 53.09417 -1.42861 30048 ft 421 kts 325°
2026-04-14 14:08 53.14377 -1.47922 30032 ft 421 kts 325°
2026-04-14 14:08 53.19370 -1.53031 30031 ft 420 kts 325°
2026-04-14 14:09 53.24361 -1.58152 30035 ft 421 kts 325°
2026-04-14 14:09 53.29351 -1.63287 30033 ft 422 kts 324°
2026-04-14 14:10 53.34343 -1.68441 30034 ft 421 kts 324°
2026-04-14 14:10 53.39325 -1.73603 30023 ft 421 kts 324°
2026-04-14 14:11 53.44311 -1.78782 30026 ft 421 kts 324°
2026-04-14 14:11 53.49293 -1.83969 30021 ft 422 kts 324°
2026-04-14 14:12 53.54254 -1.89143 30020 ft 422 kts 324°
2026-04-14 14:12 53.59266 -1.94388 30016 ft 422 kts 324°
2026-04-14 14:13 53.64261 -1.99634 30025 ft 423 kts 324°
2026-04-14 14:13 53.69261 -2.04903 30023 ft 423 kts 324°
2026-04-14 14:14 53.74302 -2.10029 30022 ft 425 kts 328°
2026-04-14 14:14 53.79797 -2.13964 30020 ft 430 kts 333°
2026-04-14 14:15 53.85340 -2.17761 30018 ft 430 kts 333°
2026-04-14 14:15 53.90851 -2.21547 30017 ft 430 kts 333°
2026-04-14 14:16 53.96398 -2.25360 30009 ft 430 kts 332°
2026-04-14 14:16 54.01954 -2.29187 30011 ft 431 kts 332°
2026-04-14 14:17 54.10272 -2.34933 30012 ft 431 kts 332°
2026-04-14 14:17 54.15858 -2.38804 30008 ft 432 kts 332°
2026-04-14 14:18 54.21432 -2.42679 30009 ft 433 kts 332°
2026-04-14 14:18 54.27013 -2.46570 30002 ft 433 kts 332°
2026-04-14 14:19 54.32586 -2.50466 30007 ft 433 kts 332°
2026-04-14 14:19 54.38161 -2.54376 29997 ft 433 kts 332°
2026-04-14 14:20 54.43693 -2.58267 29995 ft 433 kts 332°
2026-04-14 14:20 54.49318 -2.62235 29998 ft 434 kts 332°
2026-04-14 14:21 54.54860 -2.66157 30000 ft 434 kts 332°
2026-04-14 14:21 54.60434 -2.70113 29996 ft 434 kts 332°
2026-04-14 14:22 54.66040 -2.74102 29984 ft 434 kts 332°
2026-04-14 14:22 54.68775 -2.76047 29771 ft 421 kts 332°
2026-04-14 14:22 54.71454 -2.77951 29492 ft 408 kts 331°
2026-04-14 14:23 54.74026 -2.79789 29064 ft 404 kts 331°
2026-04-14 14:23 54.76654 -2.81677 28461 ft 400 kts 331°
2026-04-14 14:23 54.79176 -2.83489 27904 ft 395 kts 332°
2026-04-14 14:23 54.81701 -2.85305 27336 ft 391 kts 332°
2026-04-14 14:24 54.84197 -2.87103 26772 ft 386 kts 332°
2026-04-14 14:24 54.86666 -2.88883 26246 ft 382 kts 332°
2026-04-14 14:24 54.89152 -2.90685 26007 ft 392 kts 332°
2026-04-14 14:24 54.91674 -2.92513 25843 ft 392 kts 332°
2026-04-14 14:25 54.94201 -2.94343 25206 ft 396 kts 332°
2026-04-14 14:25 54.96774 -2.96215 24152 ft 406 kts 333°
2026-04-14 14:25 54.99418 -2.98143 23151 ft 414 kts 333°
2026-04-14 14:25 55.02071 -3.00069 22447 ft 409 kts 333°
2026-04-14 14:26 55.04668 -3.01949 22057 ft 398 kts 333°
2026-04-14 14:26 55.07183 -3.03771 21714 ft 387 kts 333°
2026-04-14 14:26 55.09643 -3.05564 21189 ft 387 kts 333°
2026-04-14 14:26 55.12128 -3.07382 20646 ft 385 kts 333°
2026-04-14 14:27 55.14553 -3.09157 20181 ft 381 kts 333°
2026-04-14 14:27 55.17008 -3.10955 19894 ft 379 kts 333°
2026-04-14 14:27 55.19408 -3.12712 19779 ft 368 kts 333°
2026-04-14 14:27 55.21719 -3.14403 19645 ft 354 kts 333°
2026-04-14 14:28 55.23922 -3.16018 19537 ft 340 kts 333°
2026-04-14 14:28 55.26090 -3.17612 19295 ft 332 kts 333°
2026-04-14 14:28 55.28249 -3.19157 18789 ft 335 kts 337°
2026-04-14 14:28 55.30538 -3.20028 18324 ft 340 kts 351°
2026-04-14 14:29 55.32914 -3.19982 17832 ft 343 kts
2026-04-14 14:29 55.35265 -3.19588 17368 ft 340 kts
2026-04-14 14:29 55.37624 -3.19214 16887 ft 339 kts
2026-04-14 14:29 55.39978 -3.18848 16393 ft 338 kts
2026-04-14 14:30 55.42314 -3.18487 15953 ft 336 kts
2026-04-14 14:30 55.44638 -3.18126 15533 ft 334 kts
2026-04-14 14:30 55.46950 -3.17764 15098 ft 333 kts
2026-04-14 14:30 55.49255 -3.17404 14685 ft 331 kts
2026-04-14 14:31 55.51547 -3.17045 14259 ft 330 kts
2026-04-14 14:31 55.53828 -3.16685 13831 ft 329 kts
2026-04-14 14:31 55.56102 -3.16328 13386 ft 327 kts
2026-04-14 14:31 55.58325 -3.15979 12974 ft 324 kts
2026-04-14 14:32 55.60536 -3.15628 12798 ft 313 kts
2026-04-14 14:32 55.62688 -3.15286 12688 ft 301 kts
2026-04-14 14:32 55.64723 -3.14962 12387 ft 296 kts
2026-04-14 14:32 55.66772 -3.14641 12002 ft 296 kts
2026-04-14 14:33 55.68817 -3.14319 11639 ft 295 kts
2026-04-14 14:33 55.70856 -3.13996 11238 ft 294 kts
2026-04-14 14:33 55.72883 -3.13654 10916 ft 291 kts
2026-04-14 14:33 55.74887 -3.13175 10548 ft 290 kts
2026-04-14 14:34 55.78865 -3.12107 9823 ft 288 kts
2026-04-14 14:34 55.80842 -3.11586 9454 ft 285 kts
2026-04-14 14:34 55.82763 -3.11091 9334 ft 273 kts
2026-04-14 14:35 55.84598 -3.10623 9230 ft 261 kts
2026-04-14 14:35 55.86398 -3.10169 8892 ft 261 kts
2026-04-14 14:35 55.88157 -3.09728 8572 ft 260 kts
2026-04-14 14:35 55.89977 -3.09273 8237 ft 259 kts
2026-04-14 14:36 55.91756 -3.09090 7917 ft 255 kts 348°
2026-04-14 14:36 55.93497 -3.09539 7590 ft 255 kts
2026-04-14 14:36 55.95160 -3.08668 7315 ft 253 kts 32°
2026-04-14 14:36 55.96446 -3.06586 7081 ft 248 kts 49°
2026-04-14 14:37 55.97602 -3.04308 6839 ft 247 kts 51°
2026-04-14 14:37 55.98619 -3.01857 6603 ft 244 kts 59°
2026-04-14 14:37 55.99541 -2.99319 6354 ft 243 kts 59°
2026-04-14 14:37 56.00455 -2.96796 6089 ft 241 kts 59°
2026-04-14 14:38 56.01370 -2.94293 5831 ft 240 kts 59°
2026-04-14 14:38 56.02322 -2.91848 5567 ft 239 kts 57°
2026-04-14 14:38 56.03291 -2.89478 5312 ft 239 kts 51°
2026-04-14 14:38 56.04659 -2.87819 5053 ft 243 kts 18°
2026-04-14 14:39 56.06338 -2.87599 4751 ft 242 kts 351°
2026-04-14 14:39 56.07947 -2.88340 4467 ft 239 kts 328°
2026-04-14 14:39 56.09122 -2.90338 4133 ft 233 kts 292°
2026-04-14 14:39 56.09387 -2.93062 3945 ft 219 kts 258°
2026-04-14 14:40 56.08978 -2.95632 3920 ft 210 kts 242°
2026-04-14 14:40 56.08330 -2.97873 3691 ft 199 kts 235°
2026-04-14 14:40 56.07607 -3.00000 3453 ft 202 kts 233°
2026-04-14 14:40 56.06872 -3.02172 3323 ft 203 kts 234°
2026-04-14 14:41 56.06146 -3.04329 3131 ft 203 kts 234°
2026-04-14 14:41 56.05415 -3.06493 3015 ft 201 kts 234°
2026-04-14 14:41 56.04744 -3.08494 3014 ft 175 kts 234°
2026-04-14 14:41 56.04129 -3.10304 3022 ft 175 kts 233°
2026-04-14 14:42 56.03502 -3.12157 3020 ft 173 kts 233°
2026-04-14 14:42 56.02877 -3.14001 3019 ft 174 kts 233°
2026-04-14 14:42 56.02259 -3.15832 3021 ft 173 kts 234°
2026-04-14 14:42 56.01639 -3.17668 2966 ft 167 kts 233°
2026-04-14 14:43 56.01069 -3.19357 2864 ft 150 kts 233°
2026-04-14 14:43 56.00546 -3.20897 2591 ft 143 kts 233°
2026-04-14 14:43 56.00037 -3.22403 2243 ft 142 kts 233°
2026-04-14 14:43 55.99521 -3.23850 1929 ft 135 kts 231°
2026-04-14 14:44 55.99033 -3.25260 1590 ft 133 kts 234°
2026-04-14 14:44 55.98581 -3.26725 1278 ft 132 kts 235°
2026-04-14 14:44 55.98136 -3.28020 1164 ft 121 kts 231°
2026-04-14 14:44 55.97645 -3.29336 1089 ft 127 kts 236°
2026-04-14 14:45 55.97235 -3.30692 873 ft 123 kts 235°
2026-04-14 14:45 55.96798 -3.31965 678 ft 119 kts 232°
2026-04-14 14:45 55.96342 -3.33306 503 ft 130 kts 235°
2026-04-14 14:45 55.95876 -3.34668 292 ft 125 kts 234°
2026-04-14 14:46 55.95557 -3.35591 223 ft 143 kts 234°
2026-04-14 14:46 55.94926 -3.37381 112 ft 107 kts 238°
2026-04-14 14:46 55.94516 -3.38660 134 ft 149 kts 237°
2026-04-14 14:46 55.93931 -3.40456 594 ft 185 kts 236°
2026-04-14 14:47 55.93239 -3.42549 1425 ft 201 kts 235°
2026-04-14 14:47 55.92501 -3.44823 2411 ft 226 kts 238°
2026-04-14 14:47 55.91737 -3.47469 2854 ft 245 kts 239°
2026-04-14 14:47 55.90992 -3.50083 3000 ft 226 kts 234°
2026-04-14 14:48 55.89922 -3.51879 3023 ft 203 kts 204°
2026-04-14 14:48 55.88572 -3.52440 3033 ft 203 kts 179°
2026-04-14 14:48 55.87175 -3.52409 3016 ft 196 kts 177°
2026-04-14 14:48 55.85852 -3.52361 3018 ft 185 kts 177°
2026-04-14 14:49 55.84560 -3.52294 3020 ft 189 kts 177°
2026-04-14 14:49 55.83686 -3.52250 3024 ft 190 kts 177°
2026-04-14 14:49 55.82383 -3.52179 3056 ft 185 kts 177°
2026-04-14 14:49 55.81093 -3.52127 3331 ft 187 kts 177°
2026-04-14 14:50 55.79828 -3.52567 3636 ft 190 kts 207°
2026-04-14 14:50 55.78841 -3.54179 3949 ft 197 kts 229°
2026-04-14 14:50 55.78175 -3.56337 4302 ft 200 kts 239°
2026-04-14 14:50 55.77573 -3.58567 4765 ft 201 kts 239°
2026-04-14 14:51 55.76965 -3.60825 4973 ft 204 kts 243°
2026-04-14 14:51 55.76522 -3.63237 5012 ft 206 kts 249°
2026-04-14 14:51 55.76144 -3.65638 5008 ft 204 kts 249°
2026-04-14 14:51 55.75759 -3.68072 5002 ft 204 kts 249°
2026-04-14 14:52 55.75373 -3.70534 4835 ft 204 kts 249°
2026-04-14 14:52 55.75007 -3.72971 4634 ft 205 kts 253°
2026-04-14 14:52 55.75132 -3.75532 4419 ft 219 kts 288°
2026-04-14 14:52 55.76098 -3.77666 4221 ft 229 kts 323°
2026-04-14 14:53 55.77600 -3.78573 4019 ft 232 kts 359°
2026-04-14 14:53 55.79179 -3.78220 3967 ft 232 kts 20°
2026-04-14 14:53 55.80617 -3.76990 3974 ft 229 kts 39°
2026-04-14 14:53 55.81796 -3.75140 3970 ft 224 kts 52°
2026-04-14 14:54 55.82771 -3.73028 3980 ft 219 kts 60°
2026-04-14 14:54 55.83613 -3.70768 3980 ft 219 kts 64°
2026-04-14 14:54 55.84407 -3.68452 3986 ft 219 kts 64°
2026-04-14 14:54 55.85200 -3.66129 3834 ft 219 kts 64°
2026-04-14 14:55 55.85991 -3.63798 3513 ft 224 kts 64°
2026-04-14 14:55 55.86797 -3.61437 3232 ft 217 kts 64°
2026-04-14 14:55 55.87542 -3.59247 2910 ft 204 kts 64°
2026-04-14 14:55 55.88271 -3.57102 2622 ft 194 kts 65°
2026-04-14 14:56 55.89548 -3.53346 2136 ft 162 kts 65°
2026-04-14 14:56 55.90092 -3.51744 1904 ft 144 kts 67°
2026-04-14 14:56 55.90584 -3.50240 1639 ft 138 kts 65°
2026-04-14 14:57 55.91104 -3.48805 1505 ft 137 kts 64°
2026-04-14 14:57 55.91571 -3.47345 1345 ft 135 kts 66°
2026-04-14 14:57 55.92074 -3.45894 1125 ft 138 kts 64°
2026-04-14 14:57 55.92568 -3.44429 974 ft 138 kts 64°
2026-04-14 14:58 55.93045 -3.42968 695 ft 134 kts 66°
2026-04-14 14:58 55.93519 -3.41514 575 ft 139 kts 58°
2026-04-14 14:58 55.94075 -3.39959 337 ft 151 kts 64°
2026-04-14 14:58 55.94600 -3.38427 135 ft 138 kts 64°
2026-04-14 14:59 55.95045 -3.37096 111 ft 103 kts 59°
2026-04-14 14:59 55.95325 -3.36278 104 ft 64 kts 59°
2026-04-14 14:59 55.95529 -3.35677 109 ft 37 kts 58°
2026-04-14 14:59 55.95565 -3.35522 108 ft 1 kts 113°
2026-04-14 15:00 55.95535 -3.35479 108 ft 9 kts 156°
2026-04-14 15:00 55.95468 -3.35402 109 ft 15 kts 148°
2026-04-14 15:00 55.95419 -3.35444 110 ft 8 kts 238°
2026-04-14 15:00 55.95384 -3.35542 110 ft 11 kts 237°
2026-04-14 15:01 55.95333 -3.35688 107 ft 17 kts 242°
2026-04-14 15:01 55.95269 -3.35887 107 ft 20 kts 238°
2026-04-14 15:01 55.95190 -3.36113 107 ft 22 kts 239°
2026-04-14 15:01 55.95114 -3.36345 110 ft 21 kts 238°
2026-04-14 15:02 55.95061 -3.36493 112 ft 10 kts 238°
2026-04-14 15:02 55.95014 -3.36628 110 ft 15 kts 238°
2026-04-14 15:02 55.94965 -3.36776 109 ft 9 kts 240°
2026-04-14 15:02 55.94906 -3.36813 108 ft 11 kts 150°
2026-04-14 15:03 55.94917 -3.36686 109 ft 13 kts 58°
2026-04-14 15:03 55.94970 -3.36530 109 ft 11 kts 60°
2026-04-14 15:03 55.94978 -3.36497 109 ft 8 kts 73°
2026-04-14 15:03 55.94958 -3.36465 108 ft 6 kts 162°
2026-04-14 15:04 55.94921 -3.36429 107 ft 4 kts 146°
2026-04-14 15:04 55.94916 -3.36423 107 ft 0 kts 146°
2026-04-14 15:06 53.63004 10.00372 41 ft 0 kts 122°